[[{"header":{"parameterUnit":"m.s-1","parameterCategory":1,"la1":30.2991,"la2":30.254,"lo1":-89.0895,"lo2":-89.0444,"dy":0.0017,"dx":0.0017,"nx":28,"ny":28,"refTime":"2024-10-18T09:00:00:Z","depth":0,"parameterNumber":2,"parameterNumberName":"U-component_of_WINDS"},"data":[0,0,0,0,0,0,0,0,0,0,0,0,0,0,0,0,0,0,0,0,0,0,0,0,0,0,0,0,0,0,0,0,0,0,0,0,0,0,0,0,0,0,0,0,0,0,0,0,0,0,0,0,0,0,0,0,0,0,-7.1704,-7.1705,0,-7.1736,-7.1736,-7.1736,-7.1599,-7.1595,-7.1591,-7.1587,-7.162,-7.1624,-7.1629,0,0,0,0,0,0,0,0,0,0,0,0,0,-7.1527,-7.1531,-7.1704,-7.1705,-7.1705,-7.1736,-7.1736,-7.1736,-7.16,-7.1595,-7.159,-7.1586,-7.1618,-7.1623,-7.1629,0,0,0,0,0,0,0,0,0,0,0,0,0,-7.1586,-7.1532,-7.1704,-7.1641,-7.1635,-7.1735,-7.1736,-7.1736,-7.1601,-7.1595,-7.1589,-7.1583,-7.1616,-7.1623,-7.163,-7.1793,0,0,-7.1651,-7.1654,0,0,0,0,0,0,0,0,-7.1583,-7.1592,-7.165,-7.1645,-7.1639,-7.1657,-7.1685,-7.1755,-7.1602,-7.1614,-7.1587,-7.158,-7.1637,-7.1642,-7.1661,-7.1794,-7.1796,-7.1651,-7.1656,-7.1659,-7.1661,0,0,0,0,0,0,0,-7.1579,-7.159,-7.1717,-7.1651,-7.1644,-7.1611,-7.1612,-7.1698,-7.1659,-7.1612,-7.1603,-7.1608,-7.1633,-7.1655,-7.1661,-7.1796,-7.1651,-7.1657,-7.1662,-7.1664,-7.2065,-7.2071,0,0,0,0,0,0,-7.1583,-7.1588,-7.1716,-7.1717,-7.1596,-7.1619,-7.1621,-7.1658,-7.1657,-7.1652,-7.1613,-7.1602,-7.1646,-7.1653,-7.1661,-7.1851,-7.1659,-7.1665,-7.1669,-7.2059,-7.2066,-7.2073,0,0,0,0,0,0,-7.158,-7.1596,-7.1714,-7.165,-7.1663,-7.1628,-7.1671,-7.1661,-7.1683,-7.1658,-7.165,-7.1642,-7.1641,-7.1652,-7.1761,-7.1851,-7.1668,-7.1674,-7.2051,-7.2061,-7.207,-7.2234,0,0,0,0,0,0,-7.1575,-7.1595,-7.1657,-7.1652,-7.1667,-7.1814,-7.1676,-7.1666,-7.1695,-7.168,-7.1683,-7.1678,-7.1637,-7.1752,-7.1768,-7.1857,-7.168,-7.2043,-7.2055,-7.2067,-7.222,-7.2248,-7.2272,0,0,0,0,0,-7.1569,-7.1701,-7.166,-7.1677,-7.1742,-7.1819,-7.1827,-7.1777,-7.1703,-7.1764,-7.1749,-7.1678,-7.1839,-7.1764,-7.1781,-7.1874,-7.2037,-7.2052,-7.2066,-7.2209,-7.2243,-7.2271,0,0,0,0,0,0,-7.1716,-7.17,-7.1654,-7.1789,-7.1807,-7.1796,-7.1871,-7.1815,-7.1854,-7.1839,-7.1775,-7.1777,-7.1898,-7.1897,-7.1814,-7.2032,-7.1925,-7.1944,-7.2028,-7.206,-7.2085,-7.2082,-7.1685,0,0,0,0,0,-7.1765,-7.1829,-7.181,-7.1931,-7.1942,-7.1906,-7.1938,-7.1898,-7.1914,-7.1921,-7.1913,-7.1931,-7.1986,-7.2023,-7.2071,-7.222,-7.2219,-7.2293,-7.2318,-7.234,-7.2356,-7.2435,-7.2467,-7.2122,-7.2121,-7.2121,0,0,-7.1865,-7.1864,-7.1907,-7.1961,-7.197,-7.2037,-7.1913,-7.199,-7.2039,-7.1932,-7.2035,-7.2031,-7.2047,-7.2177,-7.2234,-7.2179,-7.2452,-7.2358,-7.2376,-7.238,-7.2453,-7.2486,-7.2515,-7.2131,-7.213,-7.2128,0,0,-7.2081,-7.2087,-7.2188,-7.22,-7.2216,-7.2191,-7.2216,-7.2214,-7.2207,-7.2309,-7.2231,-7.2289,-7.2384,-7.2399,-7.2419,-7.2644,-7.258,-7.2662,-7.2796,-7.2873,-7.29,-7.2924,-7.3004,-7.3033,-7.2679,-7.2679,-7.2679,0,-7.2203,-7.2301,-7.2247,-7.2329,-7.2355,-7.2262,-7.2364,-7.2379,-7.241,-7.243,-7.2369,-7.2487,-7.2492,-7.2624,-7.2679,-7.2699,-7.2724,-7.266,-7.2901,-7.2924,-7.2946,-7.3021,-7.3051,-7.2689,-7.2688,-7.2687,-7.2686,0,-7.245,-7.252,-7.26,-7.2633,-7.2668,-7.276,-7.2719,-7.2762,-7.272,-7.2702,-7.2808,-7.281,-7.2858,-7.2887,-7.2847,-7.3014,-7.298,-7.2912,-7.2802,-7.2989,-7.3059,-7.3087,-7.2703,-7.2699,-7.2696,-7.2694,0,0,-7.2758,-7.2761,-7.2791,-7.2804,-7.2816,-7.2869,-7.2957,-7.3004,-7.3041,-7.3067,-7.3139,-7.3223,-7.316,-7.3183,-7.3144,-7.3212,-7.339,-7.3135,-7.3134,-7.3181,-7.3574,-7.3624,-7.3658,-7.3349,-7.3354,-7.3358,-7.3572,0,-7.2969,-7.3119,-7.3074,-7.3225,-7.3288,-7.3203,-7.3279,-7.3295,-7.3282,-7.3334,-7.3318,-7.3379,-7.3291,-7.3305,-7.3369,-7.3355,-7.3467,-7.3339,-7.3415,-7.3418,-7.3412,-7.3695,-7.3748,-7.3949,-7.3599,-7.3604,-7.3607,0,-7.3234,-7.3271,-7.3429,-7.343,-7.3455,-7.3525,-7.3565,-7.3616,-7.3633,-7.3618,-7.3645,-7.3593,-7.3679,-7.3572,-7.3691,-7.3605,-7.3634,-7.3632,-7.3639,-7.3642,-7.3522,-7.3705,-7.4013,-7.4043,-7.3649,-7.3646,-7.3643,0,-7.3442,-7.353,-7.3636,-7.3651,-7.3655,-7.3707,-7.3711,-7.3722,-7.3753,-7.3789,-7.3808,-7.3854,-7.3879,-7.3915,-7.3876,-7.3802,-7.4002,-7.3891,-7.3991,-7.3993,-7.4035,-7.4033,-7.4351,-7.4057,-7.4057,-7.4056,-7.4056,0,-7.3681,-7.3781,-7.3729,-7.3794,-7.3903,-7.3851,-7.3961,-7.3956,-7.3966,-7.4029,-7.3958,-7.4019,-7.3965,-7.4021,-7.3991,-7.4094,-7.4106,-7.4097,-7.4087,-7.4102,-7.4103,-7.4118,-7.4103,-7.4064,-7.4063,-7.4061,-7.406,0,-7.393,-7.3899,-7.4009,-7.4005,-7.4007,-7.4087,-7.4084,-7.4144,-7.4126,-7.4207,-7.4222,-7.4194,-7.4257,-7.4222,-7.4286,-7.4266,-7.44,-7.4372,-7.4394,-7.4386,-7.4488,-7.4479,-7.4826,-7.4868,-7.4549,-7.4552,-7.4555,0,-7.4084,-7.4158,-7.4163,-7.42,-7.4209,-7.427,-7.4302,-7.4254,-7.4291,-7.4316,-7.4374,-7.443,-7.4472,-7.4575,-7.4561,-7.461,-7.4582,-7.47,-7.4589,-7.4601,-7.4582,-7.4578,-7.4585,-7.4722,-7.4726,-7.4729,-7.4731,0,-7.436,-7.4341,-7.439,-7.4435,-7.4475,-7.4508,-7.4534,-7.4569,-7.4522,-7.4566,-7.4629,-7.4662,-7.4728,-7.4785,-7.4827,-7.4832,-7.4775,-7.4767,-7.4793,-7.4808,-7.4817,-7.4812,-7.4454,-7.4759,-7.4756,-7.4754,-7.4753,-7.4751,-7.4564,-7.4627,-7.464,-7.4697,-7.4713,-7.474,-7.4796,-7.4786,-7.4838,-7.4887,-7.4856,-7.4931,-7.4946,-7.4997,-7.501,-7.5067,-7.502,-7.5057,-7.5066,-7.5076,-7.5089,-7.481,-7.5075,-7.5074,-7.5073,-7.5073,-7.5072,0,-7.4836,-7.484,-7.4894,-7.4934,-7.4979,-7.4922,-7.4949,-7.4991,-7.5057,-7.5077,-7.512,-7.5193,-7.5248,-7.5239,-7.5289,-7.5337,-7.5312,-7.5352,-7.5347,-7.5349,-7.5129,-7.5101,-7.5371,-7.5371,-7.5371,-7.5371,-7.5371,-7.5371,-7.4982,-7.5084,-7.5068,-7.5178,-7.5182,-7.5254,-7.5275,-7.5299,-7.5315,-7.5399,-7.5445,-7.5439,-7.5447,-7.5498,-7.5546,-7.5542,-7.5563,-7.5613,-7.5599,-7.5394,-7.5364,-7.5336,-7.5309,-7.5618,-7.5619,-7.5813,-7.5815,-7.5817]},{"header":{"parameterUnit":"m.s-1","parameterCategory":1,"la1":30.2991,"la2":30.254,"lo1":-89.0895,"lo2":-89.0444,"dy":0.0017,"dx":0.0017,"nx":28,"ny":28,"refTime":"2024-10-18T09:00:00:Z","depth":0,"parameterNumber":3,"parameterNumberName":"V-component_of_WINDS"},"data":[0,0,0,0,0,0,0,0,0,0,0,0,0,0,0,0,0,0,0,0,0,0,0,0,0,0,0,0,0,0,0,0,0,0,0,0,0,0,0,0,0,0,0,0,0,0,0,0,0,0,0,0,0,0,0,0,0,0,-0.2409,-0.2408,0,-0.2394,-0.2394,-0.2394,-0.2335,-0.2334,-0.2332,-0.2331,-0.232,-0.2321,-0.2322,0,0,0,0,0,0,0,0,0,0,0,0,0,-0.2387,-0.2388,-0.2409,-0.2408,-0.2408,-0.2394,-0.2394,-0.2394,-0.2335,-0.2334,-0.2332,-0.233,-0.232,-0.2321,-0.2322,0,0,0,0,0,0,0,0,0,0,0,0,0,-0.2387,-0.2388,-0.2409,-0.2377,-0.2374,-0.2394,-0.2394,-0.2394,-0.2336,-0.2333,-0.2331,-0.2329,-0.2319,-0.2321,-0.2322,-0.2372,0,0,-0.2327,-0.2327,0,0,0,0,0,0,0,0,-0.2387,-0.2388,-0.2382,-0.2379,-0.2376,-0.2364,-0.2382,-0.2387,-0.2336,-0.235,-0.2331,-0.2328,-0.2337,-0.2336,-0.2338,-0.2372,-0.2371,-0.2327,-0.2328,-0.2328,-0.2329,0,0,0,0,0,0,0,-0.2388,-0.2389,-0.2403,-0.2382,-0.2378,-0.2364,-0.2362,-0.2383,-0.2355,-0.2349,-0.2345,-0.2344,-0.2335,-0.2337,-0.2338,-0.2371,-0.2327,-0.2328,-0.2329,-0.2329,-0.2444,-0.2446,0,0,0,0,0,0,-0.2392,-0.2389,-0.2403,-0.2403,-0.2377,-0.2367,-0.2364,-0.237,-0.2355,-0.235,-0.2345,-0.2341,-0.2336,-0.2336,-0.2337,-0.2394,-0.2328,-0.233,-0.233,-0.2442,-0.2444,-0.2447,0,0,0,0,0,0,-0.2391,-0.2393,-0.2404,-0.2394,-0.2395,-0.2369,-0.2377,-0.2371,-0.2373,-0.2352,-0.2347,-0.2353,-0.2334,-0.2335,-0.2363,-0.2393,-0.233,-0.2332,-0.2439,-0.2442,-0.2445,-0.251,0,0,0,0,0,0,-0.2391,-0.2394,-0.2412,-0.2395,-0.2395,-0.243,-0.2378,-0.2372,-0.2376,-0.237,-0.2358,-0.2354,-0.2332,-0.2362,-0.2365,-0.2394,-0.2333,-0.2436,-0.2441,-0.2444,-0.2505,-0.2515,-0.2523,0,0,0,0,0,-0.239,-0.2432,-0.2414,-0.2416,-0.2418,-0.2432,-0.2432,-0.2406,-0.2378,-0.2397,-0.2383,-0.2354,-0.2389,-0.2365,-0.2368,-0.2398,-0.2434,-0.2439,-0.2444,-0.2501,-0.2513,-0.2523,0,0,0,0,0,0,-0.2455,-0.2429,-0.2409,-0.2446,-0.2441,-0.2422,-0.2445,-0.242,-0.2424,-0.2418,-0.2386,-0.2384,-0.2417,-0.241,-0.2384,-0.2445,-0.2407,-0.2413,-0.2449,-0.246,-0.2469,-0.2471,-0.2334,0,0,0,0,0,-0.2473,-0.2486,-0.2463,-0.2499,-0.2497,-0.2472,-0.2477,-0.2456,-0.2451,-0.2449,-0.2437,-0.2434,-0.2444,-0.2452,-0.246,-0.2503,-0.25,-0.2525,-0.2535,-0.2542,-0.2548,-0.257,-0.2581,-0.2463,-0.2462,-0.2462,0,0,-0.2512,-0.25,-0.251,-0.2511,-0.2505,-0.252,-0.2471,-0.2488,-0.2499,-0.2452,-0.2478,-0.2469,-0.2463,-0.2499,-0.2515,-0.2495,-0.2579,-0.2548,-0.2555,-0.2556,-0.2576,-0.2587,-0.2597,-0.2466,-0.2465,-0.2465,0,0,-0.259,-0.2582,-0.261,-0.2604,-0.2595,-0.2577,-0.2584,-0.2568,-0.256,-0.2585,-0.255,-0.2562,-0.258,-0.2577,-0.2578,-0.2652,-0.2626,-0.2655,-0.2704,-0.2726,-0.2735,-0.2743,-0.277,-0.2779,-0.2661,-0.2661,-0.2661,0,-0.264,-0.2659,-0.2628,-0.2647,-0.2648,-0.2604,-0.2633,-0.2629,-0.2624,-0.2626,-0.2604,-0.2624,-0.2617,-0.2651,-0.2669,-0.2671,-0.2678,-0.2657,-0.2736,-0.2744,-0.2751,-0.2776,-0.2786,-0.2665,-0.2664,-0.2664,-0.2664,0,-0.2721,-0.2735,-0.2758,-0.2752,-0.2756,-0.278,-0.2752,-0.276,-0.2739,-0.2723,-0.2749,-0.2738,-0.2743,-0.2749,-0.273,-0.2781,-0.2769,-0.2741,-0.2702,-0.2766,-0.2789,-0.2799,-0.267,-0.2669,-0.2668,-0.2667,0,0,-0.2841,-0.2815,-0.2825,-0.2821,-0.2807,-0.2817,-0.2839,-0.2841,-0.2849,-0.2846,-0.2864,-0.2879,-0.2853,-0.2854,-0.2833,-0.2852,-0.291,-0.2822,-0.2821,-0.2839,-0.2966,-0.2987,-0.2999,-0.2892,-0.2894,-0.2895,-0.2966,0,-0.2916,-0.295,-0.2921,-0.2961,-0.2973,-0.293,-0.2949,-0.2943,-0.2928,-0.2937,-0.2922,-0.2933,-0.2898,-0.2898,-0.2915,-0.29,-0.2936,-0.2894,-0.2909,-0.291,-0.2913,-0.301,-0.3033,-0.3101,-0.2975,-0.2977,-0.2978,0,-0.3007,-0.3007,-0.3048,-0.3029,-0.3033,-0.305,-0.305,-0.3058,-0.305,-0.3038,-0.3038,-0.3011,-0.3031,-0.2992,-0.3019,-0.2991,-0.2995,-0.2989,-0.2991,-0.2992,-0.2949,-0.3015,-0.3122,-0.3133,-0.2992,-0.299,-0.2989,0,-0.3091,-0.3101,-0.3126,-0.3124,-0.3103,-0.3116,-0.3108,-0.3097,-0.31,-0.31,-0.3102,-0.3105,-0.3106,-0.3109,-0.3084,-0.3057,-0.3114,-0.3073,-0.3106,-0.3107,-0.3121,-0.3121,-0.3231,-0.3123,-0.3122,-0.3122,-0.3122,0,-0.3178,-0.3205,-0.3163,-0.3179,-0.3207,-0.3173,-0.3203,-0.3191,-0.3181,-0.3194,-0.3157,-0.317,-0.3136,-0.3145,-0.3125,-0.3151,-0.3152,-0.3144,-0.3138,-0.3147,-0.3148,-0.315,-0.3145,-0.3125,-0.3124,-0.3124,-0.3123,0,-0.3277,-0.3251,-0.3275,-0.3252,-0.3247,-0.3269,-0.325,-0.3264,-0.3246,-0.3263,-0.3265,-0.3238,-0.3247,-0.3221,-0.3227,-0.3213,-0.325,-0.3237,-0.3253,-0.3249,-0.3284,-0.3281,-0.34,-0.3414,-0.3296,-0.3297,-0.3298,0,-0.3335,-0.3354,-0.3332,-0.3338,-0.3331,-0.334,-0.3342,-0.3309,-0.3313,-0.3304,-0.3319,-0.3324,-0.3327,-0.3344,-0.3325,-0.3329,-0.3316,-0.3357,-0.3317,-0.3325,-0.3317,-0.3316,-0.3318,-0.3366,-0.3368,-0.3369,-0.337,0,-0.344,-0.3425,-0.3429,-0.3428,-0.3431,-0.3429,-0.3425,-0.3432,-0.3396,-0.3402,-0.341,-0.3412,-0.3417,-0.3423,-0.3422,-0.3414,-0.3387,-0.3382,-0.339,-0.34,-0.3409,-0.3405,-0.3277,-0.338,-0.3379,-0.3378,-0.3378,-0.3377,-0.352,-0.3535,-0.3521,-0.3527,-0.3519,-0.3516,-0.3527,-0.351,-0.3515,-0.3515,-0.3495,-0.3507,-0.3497,-0.3493,-0.3488,-0.3497,-0.3478,-0.349,-0.3493,-0.3496,-0.3502,-0.3406,-0.3497,-0.3496,-0.3496,-0.3496,-0.3495,0,-0.3623,-0.3612,-0.3617,-0.3611,-0.3615,-0.3586,-0.3579,-0.3585,-0.3595,-0.3587,-0.359,-0.3599,-0.3604,-0.3585,-0.3587,-0.3598,-0.3585,-0.36,-0.3599,-0.3598,-0.3519,-0.3512,-0.361,-0.361,-0.361,-0.361,-0.361,-0.361,-0.3677,-0.37,-0.3684,-0.3702,-0.3691,-0.3701,-0.3699,-0.3696,-0.3689,-0.37,-0.3703,-0.369,-0.3677,-0.3678,-0.3682,-0.3676,-0.3679,-0.3698,-0.3688,-0.3615,-0.3604,-0.3593,-0.3586,-0.3699,-0.3699,-0.3767,-0.3768,-0.3768]}]]